Starlink 11298

operational
NORAD ID: 61211 Int'l Des: 2024-171 Owner: SPXS Country: US Constellation: starlink
LEOCIRCULAR

About Starlink 11298

Description loading...

Live Position

Loading 3D Globe...

Upcoming Passes

Altitude History

Altitude vs Time

uPlot chart will show altitude changes over time

Two-Line Element Set

1 61211U 24171M 26034.55679562 -.00000311 00000-0 23027-5 0 9991
2 61211 53.1595 344.8237 0001638 87.3876 272.7329 15.69700652 79031
Epoch: Feb 3, 2026 • Age: 15 hours

Current Status

Altitude 376.9 km
Velocity 7.68 km/s
Sub-Earth Point -47.23°S, 88.31°E
Launch Date Sep 20, 2024
Age 1.3 years
Type internet

Technical Details

Classification Payload
Mass 960.00 kg
Dry Mass 910.00 kg
Total Mass 960.00 kg
Length 0.30 m
Diameter 4.10 m
Span 29.00 m
Shape Box + pan
Manufacturer SPXS
Bus Type Starlink V2MD
Phase Status In Orbit
Owner/State SPXS/US

Large Constellations

Loading constellations...